User: anonymous   Login
Location: Unspecified
(0.0000°N, 0.0000°E)
Time: 22:59:30
(UTC+01:00)
Language:

Cosmos 494 Rocket - Orbit

View from above orbital plane
View from above orbital plane
View from above satellite
View from above satellite

Ground track
Ground track

The orbit data is extracted from the following two-line orbital elements,

1 06061U 72043B   14304.11386936  .00000281  00000-0  96994-4 0  5705
2 06061 074.0557 153.0457 0019751 167.5175 328.4507 14.40209137220085
Epoch (UTC): 31 October 2014 02:43:58
Eccentricity: 0.0019751
inclination: 74.0557°
perigee height: 744 km
apogee height: 772 km
right ascension of ascending node: 153.0457°
argument of perigee: 167.5175°
revolutions per day: 14.40209137
mean anomaly at epoch: 328.4507°
orbit number at epoch: 22008

The dashed part of the orbit path shows where the satellite is in the earth's shadow,  

DLR